HB9KNR Weather Reports


time (UTC)temp
C
wind
direction
speed
KPH
gust
KPH
rain 1hr
cm
rain 24hr
cm
rain mn
cm
humidity
%
barometer
mb
20260502163537 23 0.0 0.0 0.00 0.00 0.00 33 1016.5
20260502162517 23 0.0 0.0 0.00 0.00 0.00 31 1016.6
20260502161517 24 0.0 0.0 0.00 0.00 0.00 32 1016.7
20260502160517 23 0.0 0.0 0.00 0.00 0.00 31 1016.8
20260502151517 23 0.0 0.0 0.00 0.00 0.00 31 1017.5
20260502150517 23 0.0 0.0 0.00 0.00 0.00 33 1017.7
20260502130517 23 0.0 0.0 0.00 0.00 0.00 39 1019.6
20260502123517 22 0.0 0.0 0.00 0.00 0.00 39 1019.9
20260502122637 22 0.0 0.0 0.00 0.00 0.00 41 1020.0
20260502121517 22 0.0 0.0 0.00 0.00 0.00 45 1020.2
20260502120517 22 0.0 0.0 0.00 0.00 0.00 46 1020.3
20260502115517 21 0.0 0.0 0.00 0.00 0.00 48 1020.4
20260502114517 21 0.0 0.0 0.00 0.00 0.00 49 1020.6
20260502113517 21 0.0 0.0 0.00 0.00 0.00 48 1020.7
20260502112517 21 0.0 0.0 0.00 0.00 0.00 51 1021.1
20260502111517 21 0.0 0.0 0.00 0.00 0.00 51 1021.1
20260502110517 20 0.0 0.0 0.00 0.00 0.00 50 1021.4
20260502105537 20 0.0 0.0 0.00 0.00 0.00 51 1021.4
20260502104537 20 0.0 0.0 0.00 0.00 0.00 53 1021.7
20260502103517 20 0.0 0.0 0.00 0.00 0.00 53 1021.7
20260502102557 20 0.0 0.0 0.00 0.00 0.00 54 1021.8
20260502101517 20 0.0 0.0 0.00 0.00 0.00 56 1022.0
20260502100537 20 0.0 0.0 0.00 0.00 0.00 53 1022.1
20260502090517 17 0.0 0.0 0.00 0.00 0.00 60 1022.7
20260502071516 15 0.0 0.0 0.00 0.00 0.00 62 1023.5
20260502070516 14 0.0 0.0 0.00 0.00 0.00 63 1023.5
20260502065516 13 0.0 0.0 0.00 0.00 0.00 68 1023.5
20260502064537 12 0.0 0.0 0.00 0.00 0.00 73 1023.5
20260502063520 11 0.0 0.0 0.00 0.00 0.00 77 1023.5
20260502062516 10 0.0 0.0 0.00 0.00 0.00 81 1023.4
20260502061516 9 0.0 0.0 0.00 0.00 0.00 82 1023.3
20260502060536 8 0.0 0.0 0.00 0.00 0.00 84 1023.3
20260502055516 8 0.0 0.0 0.00 0.00 0.00 84 1023.3
20260502054537 7 0.0 0.0 0.00 0.00 0.00 84 1023.3
20260502053516 7 0.0 0.0 0.00 0.00 0.00 84 1023.2
20260502052517 7 0.0 0.0 0.00 0.00 0.00 84 1023.2
20260502051517 7 0.0 0.0 0.00 0.00 0.00 83 1023.0
20260502050516 6 0.0 0.0 0.00 0.00 0.00 83 1023.0
20260502045516 6 0.0 0.0 0.00 0.00 0.00 82 1023.0
20260502044517 6 0.0 0.0 0.00 0.00 0.00 81 1022.9
20260502043519 6 0.0 0.0 0.00 0.00 0.00 81 1022.9
20260502042516 6 0.0 0.0 0.00 0.00 0.00 80 1022.9
20260502041536 6 0.0 0.0 0.00 0.00 0.00 80 1022.9
20260502040517 6 0.0 0.0 0.00 0.00 0.00 79 1022.9
20260502035516 6 0.0 0.0 0.00 0.00 0.00 78 1022.9
20260502034516 6 0.0 0.0 0.00 0.00 0.00 78 1022.9
20260502033517 6 0.0 0.0 0.00 0.00 0.00 78 1022.9
20260502032517 7 0.0 0.0 0.00 0.00 0.00 78 1022.9
20260502031516 7 0.0 0.0 0.00 0.00 0.00 77 1022.9
20260502030516 7 0.0 0.0 0.00 0.00 0.00 77 1023.0
20260502025516 7 0.0 0.0 0.00 0.00 0.00 77 1023.1
20260502024536 7 0.0 0.0 0.00 0.00 0.00 76 1023.0
20260502023516 7 0.0 0.0 0.00 0.00 0.00 76 1023.0
20260502022516 7 0.0 0.0 0.00 0.00 0.00 75 1023.1
20260502021516 7 0.0 0.0 0.00 0.00 0.00 75 1023.0
20260502020536 7 0.0 0.0 0.00 0.00 0.00 74 1023.0
20260502015516 7 0.0 0.0 0.00 0.00 0.00 74 1023.1
20260502014516 7 0.0 0.0 0.00 0.00 0.00 74 1023.1
20260502013536 8 0.0 0.0 0.00 0.00 0.00 73 1023.1
20260502012516 8 0.0 0.0 0.00 0.00 0.00 73 1023.1
20260502011516 8 0.0 0.0 0.00 0.00 0.00 73 1023.1
20260502010516 8 0.0 0.0 0.00 0.00 0.00 73 1023.1
20260502005516 8 0.0 0.0 0.00 0.00 0.00 72 1023.1
20260502004516 8 0.0 0.0 0.00 0.00 0.00 72 1023.1
20260502003516 8 0.0 0.0 0.00 0.00 0.00 71 1023.2
20260502002516 8 0.0 0.0 0.00 0.00 0.00 71 1023.2
20260502001536 9 0.0 0.0 0.00 0.00 0.00 70 1023.1
20260502000516 9 0.0 0.0 0.00 0.00 0.00 70 1023.2
20260501235516 9 0.0 0.0 0.00 0.00 0.00 69 1023.2
20260501234516 9 0.0 0.0 0.00 0.00 0.00 68 1023.1
20260501233516 10 0.0 0.0 0.00 0.00 0.00 67 1023.2
20260501232516 10 0.0 0.0 0.00 0.00 0.00 69 1023.2
20260501231516 10 0.0 0.0 0.00 0.00 0.00 66 1023.1
20260501230516 10 0.0 0.0 0.00 0.00 0.00 65 1023.1
20260501225516 10 0.0 0.0 0.00 0.00 0.00 65 1023.1
20260501224516 10 0.0 0.0 0.00 0.00 0.00 65 1023.0
20260501223536 11 0.0 0.0 0.00 0.00 0.00 64 1023.0
20260501222516 11 0.0 0.0 0.00 0.00 0.00 64 1023.1
20260501221516 11 0.0 0.0 0.00 0.00 0.00 63 1023.0
20260501220536 11 0.0 0.0 0.00 0.00 0.00 62 1022.9
20260501215517 11 0.0 0.0 0.00 0.00 0.00 61 1023.1
20260501214517 11 0.0 0.0 0.00 0.00 0.00 61 1023.0
20260501213517 12 0.0 0.0 0.00 0.00 0.00 61 1023.0
20260501212517 12 0.0 0.0 0.00 0.00 0.00 60 1023.0
20260501211517 12 0.0 0.0 0.00 0.00 0.00 60 1022.9
20260501210557 12 0.0 0.0 0.00 0.00 0.00 59 1023.0
20260501205517 12 0.0 0.0 0.00 0.00 0.00 58 1023.0
20260501204517 12 0.0 1.6 0.00 0.00 0.00 57 1023.0
20260501203517 13 0.0 1.6 0.00 0.00 0.00 56 1022.9
20260501202517 13 0.0 1.6 0.00 0.00 0.00 55 1022.8
20260501201517 13 0.0 3.2 0.00 0.00 0.00 55 1022.9
20260501200537 13 0.0 0.0 0.00 0.00 0.00 54 1022.9
20260501195517 13 0.0 1.6 0.00 0.00 0.00 54 1023.0
20260501194537 14 0.0 1.6 0.00 0.00 0.00 53 1022.6
20260501193517 14 0.0 3.2 0.00 0.00 0.00 52 1022.5
20260501192516 15 0.0 1.6 0.00 0.00 0.00 50 1022.5
20260501191516 15 0.0 3.2 0.00 0.00 0.00 48 1022.3
20260501190516 16 0.0 1.6 0.00 0.00 0.00 46 1022.3
20260501185517 16 0.0 3.2 0.00 0.00 0.00 45 1022.2
20260501184537 17 0.0 1.6 0.00 0.00 0.00 44 1022.0
20260501183517 17 0.0 0.0 0.00 0.00 0.00 44 1022.0
20260501182516 18 0.0 1.6 0.00 0.00 0.00 42 1021.9
20260501181516 18 0.0 1.6 0.00 0.00 0.00 42 1021.7
20260501180536 19 0.0 1.6 0.00 0.00 0.00 41 1021.7
20260501175517 20 0.0 0.0 0.00 0.00 0.00 40 1021.9
20260501174537 20 0.0 0.0 0.00 0.00 0.00 37 1021.7
20260501173516 20 0.0 0.0 0.00 0.00 0.00 34 1021.7
20260501171516 21 0.0 0.0 0.00 0.00 0.00 31 1021.6
20260501170516 21 0.0 0.0 0.00 0.00 0.00 32 1021.9
20260501165516 21 0.0 0.0 0.00 0.00 0.00 30 1021.9
20260501164516 21 0.0 0.0 0.00 0.00 0.00 29 1021.9